Hleb Stasevich

Chefscout - Dinamo Brest
22 Feb 2028
Dienstag
Verarbeitung

Persönlichkeit

Anpassungsfähigkeit (2) Ehrgeiz (15) Kontroverse (8) Loyalität (1) Druck (2) Professionalität (7) Fairness (13) Temperament (8)

Profil

Trainerstil Demokratisch
Lizenz Nationale A
Entschlossenheit 7
Menschenführung 8
Motivation 9
Disziplin 11
Arbeitszufriedenheit
100%
Ermüdung
0%
Rolle Chefscout
Gehalt 66.8K p/W
Vertrag 14.03.2029

Leistung

Verhalten Gut
Trainingseffektivität
30%
Spielerentwicklung
15%
Verletzungsprävention
55%
Taktische Umsetzung
20%

Letzte Ereignisse

Nahm an einer Scouting-Besprechung teil jetzt
Spieler begutachtet 7T her
Nahm an einer Scouting-Besprechung teil 7T her
Nahm an einer Scouting-Besprechung teil 7T her
Empfahl ein Transferziel 7T her
Spieler begutachtet 7T her
Spieler begutachtet 7T her
Spieler begutachtet 7T her

Aktuell beobachtet

107
Spieler Verein Status Fähigkeit Vertrauen Beobachtet Zuletzt beobachtet Letzte Stimme
Kamran Aliev SKA Khabarovsk Aktiv 97 / 105 40% 5 20.02.2028 -
Axel Gnapi Dable Fakel Aktiv 94 / 95 40% 2 20.02.2028 -
Alexandr Saplinov Volga Aktiv 106 / 109 40% 2 20.02.2028 -
Georgy Melkadze Akhmat Grozny Aktiv 116 / 116 40% 2 18.02.2028 -
Karen Vardanyan Dinamo Minsk Aktiv 102 / 96 40% 2 18.02.2028 -
Martín Arenas Spartak 1918 Aktiv 93 / 100 40% 2 18.02.2028 -
David Ankeye Zeleznicar Pancevo Aktiv 121 / 113 40% 3 16.02.2028 -
Martin Sekulić Ural Aktiv 121 / 105 40% 3 16.02.2028 -
Jere Vrcić Birkirkara Aktiv 101 / 99 40% 1 16.02.2028 -
Carlos Torres Orenburg Aktiv 111 / 108 40% 2 14.02.2028 -
Ibourahima Baldé Cosenza Aktiv 103 / 104 40% 1 14.02.2028 -
Leon Sabua Fakel Aktiv 109 / 103 40% 2 12.02.2028 -
Georgy Gongadze Ufa Aktiv 98 / 103 40% 2 12.02.2028 -
Facundo Lescano Salernitana Aktiv 122 / 121 40% 1 12.02.2028 -
Lucas Carrizo Plaza Colonia Aktiv 117 / 117 40% 5 10.02.2028 -
Kerfala Cissoko Rodina Aktiv 109 / 109 40% 2 10.02.2028 -
Carlos Fernández Oviedo Aktiv 131 / 132 40% 2 10.02.2028 -
Mohamed Konaté Nizhniy Novgorod Aktiv 117 / 115 40% 2 09.02.2028 -
Razhab Magomedov Dinamo Makhachkala Aktiv 110 / 111 40% 1 09.02.2028 -
Andrés Dieppa Metalurh Zaporizhzhia Aktiv 101 / 105 40% 2 07.02.2028 -
Nikita Sokolovskiy Belshina Bericht bereit 90 / 76 69% 1 07.02.2028 -
Alexey Kashtanov Sochi Aktiv 105 / 100 40% 1 06.02.2028 -
Luca Vido Union Brescia Aktiv 112 / 115 40% 1 06.02.2028 -
Krasian Kolev Chernomorets Aktiv 96 / 106 40% 1 06.02.2028 -
Robert Mejía Orenburg Aktiv 116 / 127 40% 1 06.02.2028 -
Esteban da Silva Racing Aktiv 113 / 126 40% 2 04.02.2028 -
Slobodan Tedić Akron Aktiv 114 / 111 40% 1 04.02.2028 -
Fernando Mimbacas Juventud Aktiv 115 / 118 40% 2 03.02.2028 -
Gustavo Viera Cerro Largo Aktiv 116 / 96 40% 2 02.02.2028 -
Tigran Avanesyan Arsenal Tula Aktiv 105 / 103 40% 2 01.02.2028 -
Santiago Apa All Boys Aktiv 121 / 98 40% 3 01.02.2028 -
Danil Lipovoy Ufa Aktiv 97 / 94 40% 1 01.02.2028 -
Augusto Berrondo Tristán Suárez Aktiv 107 / 101 40% 4 30.01.2028 -
Sebastián Cocimano Nueva Chicago Aktiv 114 / 103 40% 1 30.01.2028 -
Vladislav Yatskevich BATE Aktiv 95 / 98 40% 1 29.01.2028 Mehr Infos nötig
Brian Mansilla Akhmat Grozny Aktiv 130 / 119 40% 3 28.01.2028 -
Daniil Motorin Rubin Aktiv 95 / 105 40% 1 28.01.2028 -
Luca Franco Arsenal Aktiv 103 / 110 40% 1 27.01.2028 -
Chiquinho Alagoano Baranovichi Bericht bereit 75 / 71 69% 1 25.01.2028 -
Dmitry Tsypchenko Torpedo Moscow Aktiv 112 / 111 40% 1 25.01.2028 -
Said Aliev Rotor Aktiv 98 / 105 40% 1 24.01.2028 -
Gianluca Pugliese Güemes Aktiv 119 / 102 40% 6 23.01.2028 -
Maxim Sidorov Akhmat Grozny Aktiv 106 / 113 40% 2 23.01.2028 -
Stefan Lončar Akron Aktiv 110 / 120 40% 1 23.01.2028 -
Kirill Zinovich Dinamo Makhachkala Aktiv 103 / 93 40% 2 22.01.2028 -
Franco Benítez Temperley Aktiv 118 / 121 40% 1 22.01.2028 -
Ilja Berkovskiy Torpedo Moscow Aktiv 101 / 103 40% 1 22.01.2028 -
Thiago López Almagro Aktiv 112 / 117 40% 2 21.01.2028 -
Facundo Heredia Patronato Aktiv 101 / 102 40% 2 21.01.2028 -
Santiago Vera Almirante Brown Aktiv 116 / 109 40% 1 21.01.2028 -
Federico Versaci Talleres Aktiv 107 / 115 40% 3 20.01.2028 -
Eldar Ćivić Baltika Aktiv 125 / 120 40% 2 20.01.2028 -
David Veliz Güemes Aktiv 106 / 113 40% 5 19.01.2028 -
Ramazan Gadjimuradov Chelyabinsk Aktiv 104 / 114 40% 2 16.01.2028 -
Maximiliano Ribero Central Norte Aktiv 111 / 106 40% 1 16.01.2028 -
François Kamano Sochi Aktiv 113 / 110 40% 1 16.01.2028 -
Diogo Guzmán Montevideo City Torque Aktiv 119 / 110 40% 3 15.01.2028 -
Federico Sena Estudiantes Aktiv 96 / 103 40% 1 15.01.2028 -
Jhoao Rodríguez Deportes Quindio Aktiv 103 / 112 40% 2 12.01.2028 -
Santiago Gutiérrez Alvarado Aktiv 100 / 98 40% 1 12.01.2028 -
Matías Viguet Maipú Aktiv 110 / 104 40% 4 10.01.2028 -
Andrés Tello Deportes Quindio Aktiv 106 / 104 40% 1 10.01.2028 -
Tiago Banega Gimnasia y Tiro Aktiv 117 / 117 40% 2 09.01.2028 -
Gastón Moreyra Almirante Brown Aktiv 118 / 112 40% 4 09.01.2028 -
Francisco Maidana Gimnasia y Esgrima Aktiv 106 / 105 40% 1 08.01.2028 -
José Mercado Union Magdalena Aktiv 114 / 122 40% 1 08.01.2028 -
Brahian Cuello Unión de Santa Fe Aktiv 106 / 121 40% 2 07.01.2028 -
Temirkan Sundukov Dinamo Makhachkala Aktiv 106 / 108 40% 1 06.01.2028 -
Luis Olivera Defensores Unidos Aktiv 123 / 104 40% 1 05.01.2028 -
Cristian Graciano Junior Aktiv 110 / 117 40% 1 05.01.2028 -
Facundo Taborda Racing Aktiv 120 / 101 40% 1 05.01.2028 -
Juan Rocca Gimnasia y Tiro Aktiv 118 / 99 40% 3 04.01.2028 -
Oscar Garrido Mitre Aktiv 123 / 103 40% 1 03.01.2028 -
Alexandr Ektov Nizhniy Novgorod Aktiv 105 / 110 40% 1 02.01.2028 -
Alejo Dramisino Atlanta Aktiv 130 / 122 40% 1 02.01.2028 -
Iñaki Larthirigoyen San Telmo Aktiv 110 / 128 40% 2 01.01.2028 -
Maxime Sivis Orenburg Aktiv 113 / 120 40% 2 01.01.2028 -
Duvan Rangel La Equidad Aktiv 140 / 132 40% 3 31.12.2027 -
Enzo Trinidad Colegiales Aktiv 111 / 105 40% 1 30.12.2027 -
Artur Galoyan Torpedo Moscow Aktiv 108 / 103 40% 1 30.12.2027 -
Enzo Acosta Estudiantes Aktiv 111 / 106 40% 1 30.12.2027 -
Tomás Ferreyra Defensores Unidos Aktiv 108 / 110 40% 1 29.12.2027 -
Fernando Bersano Madryn Aktiv 127 / 105 40% 2 28.12.2027 -
Horacio Tijanovich Central Córdoba SdE Aktiv 126 / 123 40% 1 28.12.2027 -
Diego Gaitán Maipú Aktiv 101 / 126 40% 1 26.12.2027 -
Sebastián Jaurena San Martín SJ Aktiv 117 / 104 40% 1 23.12.2027 -
Gonzalo Asis Almagro Aktiv 115 / 110 40% 1 22.12.2027 -
Facundo Nadalín San Martín SJ Aktiv 111 / 110 40% 1 21.12.2027 -
Johan Campaña Patriotas Aktiv 116 / 103 40% 2 20.12.2027 -
Brian Orosco Godoy Cruz Aktiv 122 / 128 40% 1 20.12.2027 -
Ramón González Almirante Brown Aktiv 105 / 116 40% 2 19.12.2027 -
Nuri Abdokov Fakel Aktiv 111 / 102 40% 1 16.12.2027 -
Enzo Martínez Almagro Aktiv 108 / 111 40% 1 15.12.2027 -
Maximiliano Rueda Patronato Aktiv 101 / 102 40% 1 12.12.2027 -
Estanislao Jara Madryn Aktiv 117 / 114 40% 1 08.12.2027 -
Santiago Sala Güemes Aktiv 106 / 120 40% 1 08.12.2027 -
Juan Pablo Gobetto Maipú Aktiv 112 / 116 40% 1 07.12.2027 -
Daouda Natama Minsk Aktiv 96 / 99 30% 1 / 1m 22.09.2027 -
Kirill Parmonov Bumprom Gomel Aktiv 88 / 74 69% 1 20.06.2027 -
Arseniy Zhukovskiy Slonim Aktiv 81 / 86 44% 2 / 2m 31.03.2027 -
Maxim Samotoy Bumprom Gomel Aktiv 77 / 84 69% 1 01.02.2027 Befürworten
Maksim Samorodov Akhmat Grozny Aktiv 114 / 128 40% 1 24.01.2027 -
Vyacheslav Grulev Nizhniy Novgorod Aktiv 105 / 106 40% 1 24.01.2027 -
Taofeek Ismaheel Qarabag Aktiv 99 / 107 40% 1 27.08.2026 -
Vladislav Solanovich Belshina Aktiv 94 / 94 30% 1 / 1m 19.08.2026 -
Mihkel Ainsalu Flora Aktiv 96 / 102 40% 1 17.08.2026 -
Job Ochieng Real Sociedad Aktiv 101 / 109 40% 1 13.08.2026 -